Location: Krakow
(50.0830°N, 19.9170°E)
Time: 10:14:41
(UTC+02:00)

BlueWalker 3 - Visible Passes

Search period start: 18 June 2024 00:00
Search period end: 28 June 2024 00:00
Orbit: 480 x 494 km, 53.2° (Epoch: 17 June)

Date Brightness Start Highest point End Pass type
(mag) Time Alt. Az. Time Alt. Az. Time Alt. Az.
18 Jun 2.2 00:17:14 10° W 00:20:57 66° NNW 00:24:42 10° ENE visible
18 Jun 2.7 01:55:46 10° WNW 01:59:27 52° N 02:03:07 10° E visible
18 Jun 1.8 03:34:01 10° WNW 03:37:46 75° SSW 03:41:30 10° ESE visible
18 Jun 2.3 22:13:46 10° SSW 22:17:14 37° SE 22:20:44 10° ENE visible
18 Jun 2.2 23:51:33 10° W 23:55:17 68° NNW 23:59:02 10° ENE visible
19 Jun 2.7 01:30:05 10° WNW 01:33:46 52° N 01:37:26 10° E visible
19 Jun 1.8 03:08:21 10° WNW 03:12:06 79° SSW 03:15:50 10° ESE visible
19 Jun 2.4 21:48:08 10° SSW 21:51:34 35° SE 21:55:02 10° ENE visible
19 Jun 2.1 23:25:52 10° WSW 23:29:36 70° NNW 23:33:20 10° ENE visible
20 Jun 2.7 01:04:23 10° WNW 01:08:04 51° N 01:11:44 10° E visible
20 Jun 1.7 02:42:39 10° WNW 02:46:25 82° SSW 02:50:09 10° ESE visible
20 Jun 2.1 23:00:09 10° WSW 23:03:54 72° NNW 23:07:39 10° ENE visible
21 Jun 2.8 00:38:41 10° WNW 00:42:21 51° N 00:46:01 10° E visible
21 Jun 1.7 02:16:57 10° WNW 02:20:43 85° SSW 02:24:28 10° ESE visible
21 Jun 2.1 22:34:26 10° WSW 22:38:11 74° NNW 22:41:56 10° ENE visible
22 Jun 2.8 00:12:58 10° WNW 00:16:38 51° N 00:20:18 10° E visible
22 Jun 1.8 01:51:15 10° WNW 01:55:00 88° SW 01:58:46 10° ESE visible
22 Jun 3.0 03:29:50 10° W 03:32:49 22° SW 03:35:46 10° S visible
22 Jun 2.0 22:08:43 10° WSW 22:12:28 77° NNW 22:16:14 10° ENE visible
22 Jun 2.8 23:47:14 10° WNW 23:50:54 50° N 23:54:34 10° E visible
23 Jun 1.8 01:25:33 10° WNW 01:29:18 89° NNE 01:33:03 10° ESE visible
23 Jun 2.9 03:04:05 10° W 03:07:07 24° SW 03:10:09 10° SSE visible
23 Jun 2.0 21:42:58 10° WSW 21:46:44 79° NNW 21:50:30 10° ENE visible
23 Jun 2.8 23:21:30 10° WNW 23:25:10 50° N 23:28:50 10° ENE visible
24 Jun 1.8 00:59:48 10° WNW 01:03:34 86° NNE 01:07:19 10° ESE visible
24 Jun 2.9 02:38:18 10° W 02:41:25 25° SW 02:44:30 10° SSE visible
24 Jun 2.8 22:55:45 10° WNW 22:59:25 50° N 23:03:05 10° ENE visible
25 Jun 1.8 00:34:04 10° WNW 00:37:50 83° NNE 00:41:35 10° ESE visible
25 Jun 2.8 02:12:31 10° W 02:15:42 26° SW 02:16:21 25° SSW visible
25 Jun 2.8 22:29:58 10° WNW 22:33:39 50° N 22:37:19 10° ENE visible
26 Jun 1.9 00:08:19 10° WNW 00:12:05 80° NNE 00:15:39 11° ESE visible
26 Jun 2.8 01:46:44 10° W 01:49:55 28° SW 01:49:55 28° SW visible
26 Jun 2.8 22:04:12 10° WNW 22:07:53 50° N 22:11:33 10° ENE visible
26 Jun 1.9 23:42:34 10° WNW 23:46:19 77° NNE 23:49:43 12° ESE visible
27 Jun 2.8 01:20:57 10° W 01:24:00 29° SW 01:24:00 29° SW visible
27 Jun 2.8 21:38:25 10° W 21:42:06 51° N 21:45:46 10° ENE visible
27 Jun 2.0 23:16:47 10° WNW 23:20:33 75° NNE 23:24:02 12° ESE visible
